Aswan, Egypt

2:32 AM EET on February 19, 2018 (GMT +0200)
Aswan

Weather History for HESN - September, 2013

Change the Weather History Date:

Friday, September 27, 2013

  Actual Average Record
Temperature  
Mean Temperature 85 °F -  
Max Temperature 99 °F 94 °F 113 °F (2002)
Min Temperature 71 °F 72 °F 71 °F (2007)
Cooling Degree Days 20    
Growing Degree Days 35 (Base 50)    
Moisture  
Dew Point 43 °F    
Average Humidity 23    
Maximum Humidity 73    
Minimum Humidity 7    
Precipitation  
Precipitation 0.00 in 0.00 in - ()
Sea Level Pressure  
Sea Level Pressure 29.82 in    
Wind  
Wind Speed 5 mph ()    
Max Wind Speed 8 mph    
Max Gust Speed -    
Visibility 6.0 miles    
Events      
Averages and records for this station are not official NWS values.
T = Trace of Precipitation, MM = Missing Value Source: Averaged Metar Reports

Daily Weather History Graph

Daily Weather History Graph

Search for Another Location

Airport or City:

Trip Planner

Search our weather history database for the weather conditions in past years. The results will help you decide how hot, cold, wet, or windy it might be!

Date:

Astronomy

Sep. 27, 2013 Rise Set
Actual Time 5:39 AM EET 5:40 PM EET
Civil Twilight 5:16 AM EET 6:02 PM EET
Nautical Twilight 4:50 AM EET 6:28 PM EET
Astronomical Twilight 4:23 AM EET 6:55 PM EET
Moon 11:43 PM EET (9/27) 12:29 PM EET (9/27)
Length of Visible Light 12h 46m
Length of Day
12h 00m
Waning Gibbous, 48% of the Moon is Illuminated
Sep 27
Waning Gibbous
Oct 5
New
Oct 12
First Quarter
Oct 19
Full
Oct 27
Last Quarter

Hourly Weather History & Observations

Time (EET) Temp. Dew Point Humidity Pressure Visibility Wind Dir Wind Speed Gust Speed Precip Events Conditions
12:00 AM 78.8 °F 35.6 °F 21% - - NW 6.9 mph - N/A   Clear
1:00 AM 78.8 °F 35.6 °F 21% 29.83 in - NW 5.8 mph - N/A   Clear
2:00 AM 78 °F 42 °F 17% 29.82 in 6 mi NW 8.1 mph - -  
2:00 AM 77.0 °F 42.8 °F 29% 29.83 in - NW 8.1 mph - N/A   Clear
3:00 AM 75.2 °F 44.6 °F 34% 29.83 in - NW 6.9 mph - N/A   Clear
4:00 AM 75.2 °F 44.6 °F 34% 29.83 in - NW 4.6 mph - N/A   Clear
5:00 AM 73.4 °F 64.4 °F 73% 29.83 in - NNW 4.6 mph - N/A   Clear
6:00 AM 71.6 °F 44.6 °F 38% 29.86 in - North 3.5 mph - N/A   Clear
7:00 AM 75.2 °F 46.4 °F 36% 29.86 in - North 4.6 mph - N/A   Clear
8:00 AM 79 °F 44 °F 19% 29.86 in 6 mi North 3.5 mph - -  
8:00 AM 78.8 °F 44.6 °F 30% 29.89 in - North 3.5 mph - N/A   Clear
9:00 AM 82.4 °F 46.4 °F 28% 29.89 in - North 6.9 mph - N/A   Clear
10:00 AM 87.8 °F 44.6 °F 22% 29.86 in - North 6.9 mph - N/A   Clear
11:00 AM 91.4 °F 44.6 °F 20% 29.86 in - North 5.8 mph - N/A   Clear
12:00 PM 95.0 °F 42.8 °F 16% 29.80 in - North 6.9 mph - N/A   Clear
1:00 PM 95.0 °F 42.8 °F 16% 29.80 in - North 6.9 mph - N/A   Clear
2:00 PM 98 °F 39 °F 7% 29.75 in 6 mi WNW 6.9 mph - -  
2:00 PM 98.6 °F 41.0 °F 14% 29.80 in - WNW 6.9 mph - N/A   Clear
3:00 PM 98.6 °F 39.2 °F 13% 29.77 in - North 5.8 mph - N/A   Clear
4:00 PM 98.6 °F 41.0 °F 14% 29.77 in - NNW 4.6 mph - N/A   Clear
5:00 PM 96.8 °F 39.2 °F 14% 29.77 in - NNW 6.9 mph - N/A   Clear
6:00 PM 93.2 °F 39.2 °F 15% 29.77 in - North 4.6 mph - N/A   Clear
7:00 PM 91.4 °F 39.2 °F 16% 29.80 in - North 3.5 mph - N/A   Clear
8:00 PM 89 °F 40 °F 10% 29.78 in 6 mi North 6.9 mph - -  
8:00 PM 89.6 °F 41.0 °F 18% 29.80 in - North 6.9 mph - N/A   Clear
9:00 PM 86.0 °F 42.8 °F 22% 29.83 in - North 8.1 mph - N/A   Clear
10:00 PM 82.4 °F 39.2 °F 21% 29.83 in - NNW 6.9 mph - N/A   Clear
11:00 PM 82.4 °F 39.2 °F 21% 29.83 in - NNW 6.9 mph - N/A   Clear